Milwaukee, WI

5:25 AM CST on February 08, 2016 (GMT -0600)
Timmerman

Weather History for KMWC - November, 2012

Change the Weather History Date:

Thursday, November 15, 2012

  Actual Average Record
Temperature  
Mean Temperature 40 °F -  
Max Temperature 51 °F 45 °F 70 °F (1953)
Min Temperature 30 °F 31 °F 2 °F (1959)
Degree Days  
Heating Degree Days 24    
Moisture  
Dew Point 28 °F    
Average Humidity 73    
Maximum Humidity 87    
Minimum Humidity 38    
Precipitation  
Precipitation 0.00 in - - ()
Sea Level Pressure  
Sea Level Pressure 30.34 in    
Wind  
Wind Speed 5 mph (SSW)    
Max Wind Speed 10 mph    
Max Gust Speed -    
Visibility 10 miles    
Events      
Averages and records for this station are not official NWS values.
T = Trace of Precipitation, MM = Missing Value Source: NWS Daily Summary

Daily Weather History Graph

Daily Weather History Graph

Search for Another Location

Airport or City:

Trip Planner

Search our weather history database for the weather conditions in past years. The results will help you decide how hot, cold, wet, or windy it might be!

Date:

Astronomy

Nov. 15, 2012 Rise Set
Actual Time 6:45 AM CST 4:27 PM CST
Civil Twilight 6:14 AM CST 4:58 PM CST
Nautical Twilight 5:40 AM CST 5:32 PM CST
Astronomical Twilight 5:06 AM CST 6:06 PM CST
Moon 8:42 AM CST (11/15) 6:17 PM CST (11/15)
Length of Visible Light 10h 43m
Length of Day
9h 42m
Waxing Crescent, 5% of the Moon is Illuminated
Nov 15
Waxing Crescent
Nov 20
First Quarter
Nov 28
Full
Dec 6
Last Quarter
Dec 13
New

Hourly Weather History & Observations

Time (CST) Temp. Windchill Dew Point Humidity Pressure Visibility Wind Dir Wind Speed Gust Speed Precip Events Conditions
12:15 AM 33.8 °F 29.6 °F 26.6 °F 75% 30.36 in 10.0 mi SSW 4.6 mph - N/A   Clear
12:35 AM 33.8 °F 29.6 °F 26.6 °F 75% 30.36 in 10.0 mi South 4.6 mph - N/A   Clear
12:55 AM 32.0 °F 27.5 °F 26.6 °F 80% 30.35 in 10.0 mi South 4.6 mph - N/A   Scattered Clouds
1:15 AM 32.0 °F 26.4 °F 26.6 °F 80% 30.35 in 10.0 mi South 5.8 mph - N/A   Scattered Clouds
1:35 AM 32.0 °F 26.4 °F 26.6 °F 80% 30.35 in 10.0 mi SSW 5.8 mph - N/A   Clear
1:55 AM 32.0 °F 27.5 °F 26.6 °F 80% 30.35 in 10.0 mi SSW 4.6 mph - N/A   Clear
2:15 AM 32.0 °F 27.5 °F 26.6 °F 80% 30.35 in 10.0 mi SSW 4.6 mph - N/A   Clear
2:35 AM 32.0 °F 26.4 °F 26.6 °F 80% 30.35 in 10.0 mi SSW 5.8 mph - N/A   Clear
2:55 AM 32.0 °F 26.4 °F 26.6 °F 80% 30.35 in 10.0 mi South 5.8 mph - N/A   Clear
3:15 AM 32.0 °F 28.7 °F 26.6 °F 80% 30.34 in 10.0 mi SSW 3.5 mph - N/A   Clear
3:35 AM 32.0 °F 28.7 °F 26.6 °F 80% 30.34 in 10.0 mi SSW 3.5 mph - N/A   Clear
3:55 AM 32.0 °F 27.5 °F 26.6 °F 80% 30.34 in 10.0 mi South 4.6 mph - N/A   Clear
4:15 AM 32.0 °F 28.7 °F 26.6 °F 80% 30.34 in 10.0 mi SSW 3.5 mph - N/A   Clear
4:35 AM 32.0 °F 28.7 °F 26.6 °F 80% 30.35 in 10.0 mi SSW 3.5 mph - N/A   Clear
4:55 AM 32.0 °F 28.7 °F 26.6 °F 80% 30.34 in 10.0 mi SSW 3.5 mph - N/A   Clear
5:15 AM 32.0 °F 28.7 °F 26.6 °F 80% 30.34 in 10.0 mi South 3.5 mph - N/A   Clear
5:35 AM 32.0 °F - 26.6 °F 80% 30.33 in 10.0 mi Calm Calm - N/A   Clear
5:55 AM 32.0 °F 28.7 °F 26.6 °F 80% 30.33 in 10.0 mi South 3.5 mph - N/A   Clear
6:45 AM 30.2 °F 24.3 °F 26.6 °F 86% 30.33 in 10.0 mi South 5.8 mph - N/A   Clear
7:45 AM 32.0 °F 27.5 °F 26.6 °F 80% 30.34 in 10.0 mi SSW 4.6 mph - N/A   Clear
8:45 AM 35.6 °F 30.7 °F 26.6 °F 70% 30.34 in 10.0 mi SSW 5.8 mph - N/A   Clear
9:45 AM 37.4 °F 32.1 °F 28.4 °F 70% 30.35 in 10.0 mi SSW 6.9 mph - N/A   Clear
10:45 AM 42.8 °F 37.0 °F 28.4 °F 57% 30.34 in 10.0 mi SSW 10.4 mph - N/A   Scattered Clouds
11:45 AM 46.4 °F 42.9 °F 26.6 °F 46% 30.31 in 10.0 mi SSW 6.9 mph - N/A   Clear
12:45 PM 48.2 °F - 28.4 °F 46% 30.30 in 10.0 mi SSW 5.8 mph - N/A   Clear
1:45 PM 50.0 °F - 28.4 °F 43% 30.28 in 10.0 mi South 4.6 mph - N/A   Clear
2:45 PM 51.8 °F - 26.6 °F 38% 30.28 in 10.0 mi SSW 10.4 mph - N/A   Clear
3:45 PM 48.2 °F - 26.6 °F 43% 30.29 in 10.0 mi SW 8.1 mph - N/A   Clear
4:45 PM 44.6 °F 42.2 °F 26.6 °F 49% 30.29 in 10.0 mi South 4.6 mph - N/A   Scattered Clouds
5:45 PM 42.8 °F 40.1 °F 28.4 °F 57% 30.31 in 10.0 mi South 4.6 mph - N/A   Clear
6:45 PM 41.0 °F 38.0 °F 30.2 °F 65% 30.33 in 10.0 mi SW 4.6 mph - N/A   Clear
7:45 PM 39.2 °F 35.0 °F 28.4 °F 65% 30.33 in 10.0 mi SSW 5.8 mph - N/A   Clear
8:15 PM 37.4 °F 33.8 °F 30.2 °F 75% 30.33 in 10.0 mi SW 4.6 mph - N/A   Clear
8:35 PM 37.4 °F 34.9 °F 30.2 °F 75% 30.34 in 10.0 mi SSW 3.5 mph - N/A   Clear
8:45 PM 39.2 °F 35.9 °F 28.4 °F 65% 30.34 in 10.0 mi SW 4.6 mph - N/A   Clear
8:55 PM 37.4 °F 34.9 °F 30.2 °F 75% 30.34 in 10.0 mi SW 3.5 mph - N/A   Clear
9:15 PM 37.4 °F 33.8 °F 30.2 °F 75% 30.34 in 10.0 mi SSW 4.6 mph - N/A   Clear
9:35 PM 33.8 °F 30.8 °F 28.4 °F 81% 30.35 in 10.0 mi SW 3.5 mph - N/A   Clear
9:55 PM 33.8 °F 29.6 °F 28.4 °F 81% 30.35 in 10.0 mi SW 4.6 mph - N/A   Clear
10:15 PM 32.0 °F 27.5 °F 28.4 °F 87% 30.34 in 10.0 mi SW 4.6 mph - N/A   Clear
10:35 PM 32.0 °F 28.7 °F 28.4 °F 87% 30.35 in 10.0 mi SW 3.5 mph - N/A   Clear
10:55 PM 32.0 °F - 28.4 °F 87% 30.35 in 10.0 mi Calm Calm - N/A   Clear
11:15 PM 32.0 °F - 28.4 °F 87% 30.35 in 10.0 mi Calm Calm - N/A   Clear
11:35 PM 32.0 °F 28.7 °F 28.4 °F 87% 30.35 in 10.0 mi West 3.5 mph - N/A   Clear
11:55 PM 32.0 °F 27.5 °F 28.4 °F 87% 30.36 in 10.0 mi West 4.6 mph - N/A   Clear